Zurück zum Katalog

CZ-6A DEB

AktivPO
NORAD 61500·DEBRIS·🇨🇳 China

Gestartet Aug 6, 2024 von Taiyuan Satellite Launch Center

Loading…

Nächste Überflüge (nächste 24 Stunden)

TLE

AktuellSource: Space-Track

Epoche: Sep 14, 2026, 11:07 UTC

1 61500U 24140ABJ 26257.46354495  .00001714  00000-0  82075-3 0  9993
2 61500  88.9774 263.4647 0070625 279.5691  79.7522 14.17382936106551

Verfolge CZ-6A DEB in Echtzeit mit AllMySat

Download on the App Store